Météo par heure à Jucurutu

Ce jour, 16 Juin, Mercredi

Heure Température Précipitation Vent Pression Humidité
00:00 +27°C° 0.6 mm 2 m/s 751 mmHg 78%
01:00 +26°C° 0.6 mm 2 m/s 751 mmHg 81%
02:00 +26°C° 0.1 mm 2 m/s 751 mmHg 82%
03:00 +26°C° 0.1 mm 2 m/s 750 mmHg 83%
04:00 +26°C° 0 mm 2 m/s 750 mmHg 83%
05:00 +25°C° 0 mm 2 m/s 750 mmHg 83%
06:00 +25°C° 0 mm 2 m/s 751 mmHg 83%
07:00 +25°C° 0 mm 2 m/s 751 mmHg 83%
08:00 +27°C° 0 mm 3 m/s 751 mmHg 74%
09:00 +29°C° 0 mm 4 m/s 751 mmHg 65%
10:00 +32°C° 0 mm 5 m/s 752 mmHg 55%
11:00 +33°C° 0 mm 4 m/s 751 mmHg 49%
12:00 +35°C° 0 mm 4 m/s 750 mmHg 43%
13:00 +37°C° 0 mm 4 m/s 750 mmHg 36%
14:00 +37°C° 0 mm 3 m/s 749 mmHg 35%
15:00 +37°C° 0 mm 3 m/s 748 mmHg 34%
16:00 +37°C° 0 mm 2 m/s 748 mmHg 33%
17:00 +35°C° 0.1 mm 3 m/s 748 mmHg 43%
18:00 +33°C° 0.1 mm 3 m/s 749 mmHg 53%
19:00 +30°C° 0.1 mm 3 m/s 749 mmHg 63%
20:00 +30°C° 0 mm 3 m/s 750 mmHg 65%
21:00 +29°C° 0 mm 3 m/s 750 mmHg 66%
22:00 +29°C° 0 mm 3 m/s 751 mmHg 68%
23:00 +28°C° 0 mm 3 m/s 751 mmHg 72%

Demain, 17 Juin, Jeudi

Heure Température Précipitation Vent Pression Humidité
00:00 +27°C° 0 mm 3 m/s 751 mmHg 75%
01:00 +26°C° 0 mm 3 m/s 751 mmHg 79%
02:00 +26°C° 0 mm 3 m/s 751 mmHg 80%
03:00 +25°C° 0 mm 2 m/s 751 mmHg 81%
04:00 +25°C° 0 mm 2 m/s 751 mmHg 83%
05:00 +25°C° 0 mm 2 m/s 751 mmHg 83%
06:00 +25°C° 0 mm 2 m/s 751 mmHg 83%
07:00 +25°C° 0 mm 2 m/s 752 mmHg 83%
08:00 +27°C° 0 mm 3 m/s 752 mmHg 73%
09:00 +29°C° 0 mm 4 m/s 752 mmHg 64%
10:00 +32°C° 0 mm 5 m/s 753 mmHg 54%
11:00 +34°C° 0 mm 5 m/s 752 mmHg 47%
12:00 +36°C° 0 mm 4 m/s 751 mmHg 41%
13:00 +38°C° 0 mm 4 m/s 751 mmHg 34%
14:00 +38°C° 0 mm 4 m/s 750 mmHg 34%
15:00 +37°C° 0 mm 4 m/s 749 mmHg 33%
16:00 +37°C° 0 mm 5 m/s 748 mmHg 32%
17:00 +36°C° 0 mm 5 m/s 749 mmHg 39%
18:00 +34°C° 0 mm 5 m/s 749 mmHg 45%
19:00 +33°C° 0 mm 5 m/s 750 mmHg 51%
20:00 +32°C° 0.1 mm 5 m/s 750 mmHg 57%
21:00 +30°C° 0.1 mm 5 m/s 751 mmHg 62%
22:00 +29°C° 0.1 mm 5 m/s 752 mmHg 67%
23:00 +28°C° 0 mm 4 m/s 752 mmHg 71%

Après-demain, 18 Juin, Vendredi

Heure Température Précipitation Vent Pression Humidité
00:00 +27°C° 0 mm 3 m/s 752 mmHg 74%
01:00 +26°C° 0 mm 3 m/s 752 mmHg 78%
02:00 +26°C° 0 mm 2 m/s 752 mmHg 80%
03:00 +25°C° 0 mm 2 m/s 751 mmHg 82%
04:00 +25°C° 0 mm 2 m/s 751 mmHg 84%
05:00 +25°C° 0 mm 2 m/s 752 mmHg 83%
06:00 +25°C° 0 mm 2 m/s 752 mmHg 83%
07:00 +25°C° 0 mm 2 m/s 752 mmHg 83%
08:00 +27°C° 0 mm 3 m/s 753 mmHg 73%
09:00 +29°C° 0 mm 4 m/s 753 mmHg 64%
10:00 +32°C° 0 mm 5 m/s 753 mmHg 54%
11:00 +33°C° 0.1 mm 5 m/s 753 mmHg 49%
12:00 +35°C° 0.1 mm 5 m/s 752 mmHg 44%
13:00 +36°C° 0.1 mm 4 m/s 751 mmHg 39%
14:00 +36°C° 0 mm 4 m/s 751 mmHg 39%
15:00 +36°C° 0 mm 4 m/s 750 mmHg 39%
16:00 +36°C° 0 mm 4 m/s 750 mmHg 39%
17:00 +34°C° 0.3 mm 4 m/s 750 mmHg 47%
18:00 +32°C° 0.3 mm 4 m/s 751 mmHg 55%
19:00 +30°C° 0.3 mm 4 m/s 751 mmHg 63%
20:00 +29°C° 0.9 mm 4 m/s 752 mmHg 66%
21:00 +28°C° 0.9 mm 5 m/s 752 mmHg 70%
22:00 +27°C° 0.9 mm 5 m/s 753 mmHg 73%
23:00 +27°C° 0 mm 4 m/s 753 mmHg 75%

19 Juin, Samedi

Heure Température Précipitation Vent Pression Humidité
00:00 +26°C° 0 mm 4 m/s 753 mmHg 78%
01:00 +26°C° 0 mm 3 m/s 753 mmHg 80%
02:00 +25°C° 0 mm 3 m/s 752 mmHg 82%
03:00 +25°C° 0 mm 2 m/s 752 mmHg 85%
04:00 +24°C° 0 mm 2 m/s 752 mmHg 87%
05:00 +24°C° 0 mm 2 m/s 752 mmHg 87%
06:00 +24°C° 0 mm 2 m/s 753 mmHg 86%
07:00 +24°C° 0 mm 2 m/s 753 mmHg 86%
08:00 +26°C° 0 mm 4 m/s 753 mmHg 75%
09:00 +29°C° 0 mm 5 m/s 753 mmHg 64%
10:00 +32°C° 0 mm 7 m/s 754 mmHg 53%
11:00 +33°C° 0 mm 7 m/s 753 mmHg 47%
12:00 +35°C° 0 mm 6 m/s 752 mmHg 41%
13:00 +38°C° 0 mm 6 m/s 752 mmHg 36%
14:00 +36°C° 0 mm 6 m/s 751 mmHg 38%
15:00 +35°C° 0 mm 6 m/s 751 mmHg 40%
16:00 +34°C° 0 mm 5 m/s 751 mmHg 42%
17:00 +33°C° 0.2 mm 6 m/s 751 mmHg 49%
18:00 +30°C° 0.2 mm 6 m/s 752 mmHg 56%
19:00 +29°C° 0.2 mm 6 m/s 752 mmHg 63%
20:00 +28°C° 0.1 mm 6 m/s 753 mmHg 67%
21:00 +27°C° 0.1 mm 5 m/s 753 mmHg 70%
22:00 +26°C° 0.1 mm 5 m/s 753 mmHg 73%
23:00 +26°C° 0 mm 4 m/s 753 mmHg 75%

20 Juin, Dimanche

Heure Température Précipitation Vent Pression Humidité
00:00 +25°C° 0 mm 4 m/s 753 mmHg 77%
01:00 +25°C° 0 mm 3 m/s 753 mmHg 79%
02:00 +24°C° 0 mm 3 m/s 752 mmHg 81%
03:00 +24°C° 0 mm 2 m/s 752 mmHg 82%
04:00 +24°C° 0 mm 2 m/s 752 mmHg 84%
05:00 +24°C° 0 mm 2 m/s 752 mmHg 84%
06:00 +24°C° 0 mm 2 m/s 752 mmHg 83%
07:00 +25°C° 0 mm 2 m/s 753 mmHg 82%
08:00 +27°C° 0 mm 3 m/s 753 mmHg 73%
09:00 +29°C° 0 mm 4 m/s 753 mmHg 64%
10:00 +32°C° 0 mm 6 m/s 753 mmHg 55%
11:00 +33°C° 0 mm 5 m/s 752 mmHg 50%
12:00 +35°C° 0 mm 5 m/s 752 mmHg 44%
13:00 +36°C° 0 mm 5 m/s 751 mmHg 38%
14:00 +36°C° 0 mm 5 m/s 750 mmHg 39%
15:00 +36°C° 0 mm 6 m/s 750 mmHg 41%
16:00 +35°C° 0 mm 6 m/s 749 mmHg 42%
17:00 +34°C° 0 mm 6 m/s 750 mmHg 46%
18:00 +33°C° 0 mm 6 m/s 750 mmHg 51%
19:00 +32°C° 0 mm 6 m/s 751 mmHg 55%
20:00 +29°C° 0 mm 5 m/s 751 mmHg 59%
21:00 +28°C° 0 mm 4 m/s 752 mmHg 63%
22:00 +27°C° 0 mm 3 m/s 752 mmHg 67%
23:00 +27°C° 0 mm 3 m/s 752 mmHg 70%

21 Juin, Lundi

Heure Température Précipitation Vent Pression Humidité
00:00 +26°C° 0 mm 2 m/s 752 mmHg 74%
01:00 +25°C° 0 mm 1 m/s 752 mmHg 78%
02:00 +25°C° 0 mm 1 m/s 752 mmHg 80%
03:00 +25°C° 0 mm 1 m/s 752 mmHg 82%
04:00 +24°C° 0 mm 1 m/s 752 mmHg 85%
05:00 +25°C° 0.1 mm 1 m/s 752 mmHg 84%
06:00 +25°C° 0.1 mm 1 m/s 752 mmHg 84%
07:00 +25°C° 0.1 mm 1 m/s 752 mmHg 83%
08:00 +27°C° 0 mm 2 m/s 752 mmHg 73%
09:00 +29°C° 0 mm 3 m/s 753 mmHg 63%
10:00 +30°C° 0 mm 3 m/s 753 mmHg 52%
11:00 +33°C° 0 mm 3 m/s 752 mmHg 46%
12:00 +35°C° 0 mm 3 m/s 751 mmHg 40%
13:00 +37°C° 0 mm 3 m/s 751 mmHg 33%
14:00 +36°C° 0 mm 3 m/s 750 mmHg 36%
15:00 +35°C° 0 mm 4 m/s 750 mmHg 40%
16:00 +35°C° 0 mm 4 m/s 749 mmHg 43%
17:00 +34°C° 0 mm 5 m/s 750 mmHg 47%
18:00 +33°C° 0 mm 5 m/s 750 mmHg 52%
19:00 +30°C° 0 mm 5 m/s 750 mmHg 57%
20:00 +29°C° 0 mm 5 m/s 751 mmHg 61%
21:00 +28°C° 0 mm 4 m/s 751 mmHg 64%
22:00 +27°C° 0 mm 4 m/s 751 mmHg 67%
23:00 +26°C° 0 mm 3 m/s 751 mmHg 71%
Voir plus

Nous avons besoin de votre consentement

Meteoprog et ses fournisseurs de services peuvent stocker et accéder à des données personnelles telles que des cookies, des identifiants d'appareils ou d'autres technologies similaires sur votre appareil et traiter ces données pour personnaliser le contenu et les publicités, ainsi que pour fournir des fonctionnalités de médias sociaux et analyser le trafic.

  • Stocker et/ou accéder à des informations sur votre appareil

    Des cookies, des identifiants d'appareils ou d'autres informations peuvent être stockés ou accessibles sur votre appareil aux fins indiquées ci-dessus.

  • Annonces et contenus personnalisés, mesure des annonces et des contenus, connaissance de l'audience et développement de produits

    Les annonces et le contenu peuvent être personnalisés en fonction d'un profil. D'autres données peuvent être ajoutées pour mieux personnaliser les annonces et le contenu. Les performances des publicités et du contenu peuvent être mesurées. Il est possible d'obtenir des informations sur le public qui a vu les publicités et le contenu. Ces données peuvent être utilisées pour développer ou améliorer l'expérience de l'utilisateur, les systèmes et les logiciels.

En cliquant sur "J'accepte", vous autorisez l'utilisation de cookies, des identifiants d'appareils, des balises web ou d'autres technologies similaires. Vos paramètres peuvent être modifiés dans le navigateur de votre appareil.

Dans certains cas, des intérêts légitimes peuvent être invoqués plutôt qu'un consentement. Vous pouvez en savoir plus à ce sujet dans notre Politique de confidentialité et de cookies.